| time (UTC) | temp F | wind direction | speed MPH | gust MPH | rain 1hr in | rain 24hr in | rain mn in | humidity % | barometer mb |
| 20260510200037 | 58 | 302 | 6.0 | 11.0 | 0.00 | 0.00 | 0.00 | 34 | 1018.1 |
| 20260510194537 | 57 | 279 | 3.0 | 9.0 | 0.00 | 0.00 | 0.00 | 35 | 1018.3 |
| 20260510193042 | 58 | 279 | 3.0 | 13.0 | 0.00 | 0.00 | 0.00 | 37 | 1018.4 |
| 20260510191534 | 58 | 244 | 4.0 | 10.0 | 0.00 | 0.00 | 0.00 | 33 | 1018.4 |
| 20260510190044 | 56 | 249 | 3.0 | 9.0 | 0.00 | 0.00 | 0.00 | 34 | 1018.6 |
| 20260510184533 | 57 | 293 | 4.0 | 9.0 | 0.00 | 0.08 | 0.00 | 36 | 1018.6 |
| 20260510183041 | 56 | 276 | 4.0 | 11.0 | 0.00 | 0.08 | 0.00 | 37 | 1018.3 |
| 20260510181534 | 56 | 240 | 7.0 | 15.0 | 0.00 | 0.08 | 0.00 | 35 | 1018.1 |
| 20260510180032 | 55 | 311 | 3.0 | 12.0 | 0.00 | 0.08 | 0.00 | 36 | 1018.1 |
| 20260510174540 | 56 | 356 | 5.0 | 11.0 | 0.00 | 0.08 | 0.00 | 36 | 1018.0 |
| 20260510173043 | 55 | 261 | 5.0 | 12.0 | 0.00 | 0.08 | 0.00 | 37 | 1018.1 |
| 20260510171536 | 56 | 329 | 6.0 | 11.0 | 0.00 | 0.08 | 0.00 | 37 | 1018.2 |
| 20260510170045 | 56 | 271 | 5.0 | 8.0 | 0.00 | 0.08 | 0.00 | 41 | 1018.2 |
| 20260510164539 | 55 | 288 | 5.0 | 10.0 | 0.00 | 0.08 | 0.00 | 38 | 1018.3 |
| 20260510163035 | 55 | 308 | 4.0 | 11.0 | 0.00 | 0.08 | 0.00 | 39 | 1018.1 |
| 20260510161533 | 55 | 299 | 8.0 | 17.0 | 0.00 | 0.08 | 0.00 | 38 | 1018.2 |
| 20260510160035 | 54 | 263 | 8.0 | 14.0 | 0.00 | 0.08 | 0.00 | 38 | 1018.2 |
| 20260510154538 | 54 | 266 | 7.0 | 15.0 | 0.00 | 0.08 | 0.00 | 41 | 1018.0 |
| 20260510153034 | 54 | 293 | 6.0 | 12.0 | 0.00 | 0.08 | 0.00 | 39 | 1017.8 |
| 20260510151538 | 53 | 338 | 5.0 | 12.0 | 0.00 | 0.08 | 0.00 | 42 | 1017.6 |
| 20260510150037 | 53 | 243 | 5.0 | 10.0 | 0.00 | 0.08 | 0.00 | 42 | 1017.5 |
| 20260510144548 | 53 | 281 | 3.0 | 9.0 | 0.00 | 0.08 | 0.00 | 46 | 1017.3 |
| 20260510143033 | 52 | 278 | 3.0 | 9.0 | 0.00 | 0.08 | 0.00 | 46 | 1017.2 |
| 20260510141537 | 51 | 333 | 4.0 | 8.0 | 0.00 | 0.08 | 0.00 | 45 | 1017.2 |
| 20260510140038 | 51 | 345 | 3.0 | 6.0 | 0.00 | 0.08 | 0.00 | 51 | 1017.0 |
| 20260510134532 | 49 | 127 | 2.0 | 8.0 | 0.00 | 0.08 | 0.00 | 53 | 1016.9 |
| 20260510133033 | 49 | 242 | 2.0 | 6.0 | 0.00 | 0.08 | 0.00 | 55 | 1016.9 |
| 20260510131540 | 49 | 0 | 2.0 | 7.0 | 0.00 | 0.08 | 0.00 | 55 | 1017.0 |
| 20260510130037 | 49 | 355 | 1.0 | 4.0 | 0.00 | 0.08 | 0.00 | 57 | 1016.7 |
| 20260510124538 | 48 | 80 | 1.0 | 6.0 | 0.00 | 0.08 | 0.00 | 59 | 1016.6 |
| 20260510123034 | 47 | 329 | 2.0 | 5.0 | 0.00 | 0.08 | 0.00 | 59 | 1016.4 |
| 20260510121532 | 47 | 0 | 0.0 | 2.0 | 0.00 | 0.08 | 0.00 | 61 | 1016.3 |
| 20260510120038 | 45 | 65 | 1.0 | 3.0 | 0.00 | 0.08 | 0.00 | 63 | 1016.1 |
| 20260510114532 | 42 | 59 | 0.0 | 1.0 | 0.00 | 0.08 | 0.00 | 69 | 1015.7 |
| 20260510113037 | 40 | 0 | 0.0 | 1.0 | 0.00 | 0.08 | 0.00 | 71 | 1015.6 |
| 20260510111546 | 38 | 0 | 0.0 | 1.0 | 0.00 | 0.08 | 0.00 | 73 | 1015.4 |
| 20260510110032 | 37 | 0 | 0.0 | 0.0 | 0.00 | 0.08 | 0.00 | 76 | 1015.2 |
| 20260510104538 | 36 | 0 | 0.0 | 0.0 | 0.00 | 0.08 | 0.00 | 75 | 1015.2 |
| 20260510103032 | 37 | 0 | 0.0 | 0.0 | 0.00 | 0.08 | 0.00 | 74 | 1014.9 |
| 20260510101534 | 38 | 0 | 0.0 | 0.0 | 0.00 | 0.08 | 0.00 | 72 | 1014.8 |
| 20260510100036 | 38 | 0 | 0.0 | 1.0 | 0.00 | 0.08 | 0.00 | 75 | 1014.7 |
| 20260510094539 | 39 | 0 | 0.0 | 0.0 | 0.00 | 0.08 | 0.00 | 73 | 1014.5 |
| 20260510093033 | 41 | 0 | 0.0 | 0.0 | 0.00 | 0.08 | 0.00 | 70 | 1014.3 |
| 20260510091534 | 42 | 0 | 0.0 | 1.0 | 0.00 | 0.08 | 0.00 | 67 | 1014.3 |
| 20260510090035 | 43 | 274 | 0.0 | 3.0 | 0.00 | 0.08 | 0.00 | 66 | 1014.0 |
| 20260510084532 | 44 | 291 | 1.0 | 4.0 | 0.00 | 0.08 | 0.00 | 66 | 1013.7 |
| 20260510083035 | 44 | 0 | 0.0 | 4.0 | 0.00 | 0.08 | 0.00 | 66 | 1013.3 |
| 20260510081537 | 45 | 12 | 2.0 | 5.0 | 0.00 | 0.08 | 0.00 | 66 | 1013.0 |
| 20260510080034 | 45 | 336 | 2.0 | 5.0 | 0.00 | 0.08 | 0.00 | 64 | 1012.5 |
| 20260510074541 | 46 | 342 | 0.0 | 4.0 | 0.00 | 0.08 | 0.00 | 63 | 1012.3 |
| 20260510073040 | 46 | 34 | 3.0 | 7.0 | 0.00 | 0.08 | 0.00 | 63 | 1012.0 |
| 20260510071536 | 46 | 274 | 0.0 | 2.0 | 0.00 | 0.08 | 0.00 | 67 | 1011.6 |
| 20260510070047 | 46 | 24 | 2.0 | 5.0 | 0.00 | 0.08 | 0.00 | 68 | 1011.3 |
| 20260510064544 | 47 | 321 | 0.0 | 1.0 | 0.00 | 0.08 | 0.00 | 67 | 1011.2 |
| 20260510063041 | 48 | 0 | 1.0 | 3.0 | 0.00 | 0.08 | 0.00 | 64 | 1011.1 |
| 20260510061540 | 49 | 23 | 1.0 | 5.0 | 0.00 | 0.08 | 0.00 | 66 | 1011.0 |
| 20260510060049 | 48 | 0 | 0.0 | 6.0 | 0.00 | 0.08 | 0.00 | 68 | 1010.9 |
| 20260510054537 | 48 | 0 | 0.0 | 0.0 | 0.00 | 0.08 | 0.00 | 68 | 1010.8 |
| 20260510053036 | 49 | 0 | 0.0 | 0.0 | 0.00 | 0.08 | 0.00 | 67 | 1010.5 |
| 20260510051601 | 50 | 309 | 0.0 | 1.0 | 0.00 | 0.08 | 0.00 | 66 | 1010.0 |
| 20260510050040 | 50 | 0 | 0.0 | 1.0 | 0.00 | 0.08 | 0.00 | 66 | 1009.8 |
| 20260510044538 | 50 | 0 | 0.0 | 1.0 | 0.00 | 0.08 | 0.00 | 66 | 1009.5 |
| 20260510043049 | 51 | 0 | 0.0 | 0.0 | 0.00 | 0.08 | 0.00 | 64 | 1009.3 |
| 20260510041537 | 52 | 0 | 0.0 | 1.0 | 0.00 | 0.08 | 0.00 | 62 | 1009.0 |
| 20260510040042 | 53 | 0 | 0.0 | 1.0 | 0.00 | 0.08 | 0.00 | 59 | 1008.9 |
| 20260510034532 | 54 | 353 | 0.0 | 2.0 | 0.00 | 0.08 | 0.08 | 57 | 1008.9 |
| 20260510033041 | 55 | 309 | 0.0 | 4.0 | 0.00 | 0.08 | 0.08 | 56 | 1008.6 |
| 20260510031605 | 56 | 0 | 0.0 | 2.0 | 0.00 | 0.08 | 0.08 | 54 | 1008.4 |
| 20260510030038 | 57 | 265 | 1.0 | 5.0 | 0.00 | 0.08 | 0.08 | 53 | 1008.2 |
| 20260510024545 | 58 | 328 | 2.0 | 6.0 | 0.00 | 0.08 | 0.08 | 51 | 1008.1 |
| 20260510023043 | 58 | 311 | 3.0 | 10.0 | 0.00 | 0.08 | 0.08 | 50 | 1007.8 |
| 20260510021544 | 60 | 338 | 5.0 | 11.0 | 0.00 | 0.08 | 0.08 | 49 | 1007.4 |
| 20260510020042 | 61 | 302 | 4.0 | 10.0 | 0.00 | 0.08 | 0.08 | 48 | 1007.0 |
| 20260510014541 | 61 | 311 | 5.0 | 11.0 | 0.00 | 0.08 | 0.08 | 50 | 1006.4 |
| 20260510013038 | 62 | 288 | 3.0 | 10.0 | 0.00 | 0.08 | 0.08 | 53 | 1005.7 |
| 20260510011543 | 61 | 279 | 0.0 | 2.0 | 0.00 | 0.08 | 0.08 | 54 | 1005.2 |
| 20260510010050 | 61 | 302 | 1.0 | 5.0 | 0.00 | 0.08 | 0.08 | 55 | 1004.9 |
| 20260510004542 | 62 | 0 | 0.0 | 2.0 | 0.00 | 0.08 | 0.08 | 51 | 1004.4 |
| 20260510003038 | 64 | 231 | 1.0 | 5.0 | 0.00 | 0.08 | 0.08 | 48 | 1004.2 |
| 20260510001537 | 65 | 292 | 2.0 | 8.0 | 0.00 | 0.08 | 0.08 | 46 | 1004.0 |
| 20260510000037 | 65 | 224 | 4.0 | 10.0 | 0.00 | 0.08 | 0.08 | 45 | 1003.8 |
| 20260509234536 | 66 | 279 | 5.0 | 14.0 | 0.00 | 0.08 | 0.08 | 43 | 1003.9 |
| 20260509233041 | 67 | 285 | 8.0 | 16.0 | 0.00 | 0.08 | 0.08 | 43 | 1003.7 |
| 20260509231546 | 67 | 146 | 8.0 | 17.0 | 0.00 | 0.08 | 0.08 | 41 | 1003.6 |
| 20260509230040 | 67 | 309 | 6.0 | 19.0 | 0.00 | 0.08 | 0.08 | 41 | 1003.6 |
| 20260509224537 | 68 | 8 | 10.0 | 22.0 | 0.00 | 0.08 | 0.08 | 41 | 1003.6 |
| 20260509223037 | 68 | 273 | 6.0 | 22.0 | 0.00 | 0.08 | 0.08 | 39 | 1003.4 |
| 20260509221539 | 68 | 242 | 13.0 | 28.0 | 0.00 | 0.08 | 0.08 | 38 | 1003.2 |
| 20260509220038 | 68 | 291 | 13.0 | 25.0 | 0.00 | 0.08 | 0.08 | 38 | 1002.9 |
| 20260509214534 | 69 | 277 | 8.0 | 25.0 | 0.00 | 0.08 | 0.08 | 38 | 1002.9 |
| 20260509213057 | 69 | 240 | 6.0 | 18.0 | 0.00 | 0.08 | 0.08 | 40 | 1002.4 |
| 20260509211606 | 69 | 336 | 9.0 | 20.0 | 0.00 | 0.08 | 0.08 | 41 | 1002.3 |
| 20260509210037 | 68 | 273 | 4.0 | 17.0 | 0.00 | 0.08 | 0.08 | 45 | 1002.5 |
| 20260509204544 | 67 | 272 | 7.0 | 14.0 | 0.00 | 0.08 | 0.08 | 47 | 1002.4 |
| 20260509203042 | 66 | 273 | 6.0 | 11.0 | 0.00 | 0.08 | 0.08 | 50 | 1002.7 |
| 20260509201534 | 65 | 274 | 6.0 | 17.0 | 0.00 | 0.08 | 0.08 | 51 | 1003.1 |